BUS_NAME,NETWORK_OPERATOR_ID,CONNECTION_TYPE,PARTY,UNIT_OF_MEASURE,FLOW,STATUS,MD_DATE,TP1,TP2,TP3,TP4,TP5,TP6,TP7,TP8,TP9,TP10,TP11,TP12,TP13,TP14,TP15,TP16,TP17,TP18,TP19,TP20,TP21,TP22,TP23,TP24,TP25,TP26,TP27,TP28,TP29,TP30,TP31,TP32,TP33,TP34,TP35,TP36,TP37,TP38,TP39,TP40,TP41,TP42,TP43,TP44,TP45,TP46,TP47,TP48,TP49,TP50,CHECKSUM
BEN0161,ECNZ,GG,ECNZ,kWh,I,F,01/03/1999,149690,95030,102940,91950,61330,87660,100160,100640,123260,131340,131520,131060,128420,205880,246760,222980,238880,240960,229490,226890,225070,224080,214840,219790,223010,234190,236440,233190,229190,230050,230790,235100,240320,250500,241120,219420,222220,229560,226580,241560,247230,249270,230680,235220,217440,235800,234510,226210,9530220
BEN0161,ECNZ,GG,ECNZ,kWh,I,F,02/03/1999,234490,192200,167000,123840,109100,74670,53160,54220,55390,60780,56360,91930,111400,160760,214440,228220,226010,228560,214800,216980,223150,227700,227850,225360,204700,212670,214670,214420,220000,222490,229420,235610,232870,232540,211920,219130,219590,197600,200110,213690,227670,234990,233540,219710,216790,200790,182090,160490,8935870
BEN0161,ECNZ,GG,ECNZ,kWh,I,F,03/03/1999,146770,105400,116310,104130,99890,111710,97720,72940,73120,73570,75020,109370,162480,207880,230660,254410,264660,267030,269340,265050,266150,266710,270880,268650,264060,271040,264400,270810,268110,266430,266510,267880,221720,218490,218490,226750,239840,243220,217250,198310,200340,203370,207300,201120,188320,188740,188540,190350,9671240
BEN0161,ECNZ,GG,ECNZ,kWh,I,F,04/03/1999,195270,179560,172330,165760,174130,178980,171670,145690,153220,179240,205380,204380,208960,208400,178470,207310,251570,251540,258140,250700,252560,254830,254940,261020,261340,258000,259410,249340,241270,238300,240180,246070,234580,246830,246460,236420,228960,234030,218470,221870,227190,222280,175860,169370,167090,170340,165510,170810,10294030
BEN0161,ECNZ,GG,ECNZ,kWh,I,F,05/03/1999,152450,144700,109910,71270,69870,71400,83230,82820,83690,84910,86340,88980,165020,204430,205930,204460,197390,235000,239350,248110,258190,256030,255820,246890,202560,173620,179260,192030,182480,181850,178590,213390,235930,236080,230400,210790,208710,211300,213640,218790,199980,209670,207620,211090,204110,197730,182280,170420,8698510
BEN0161,ECNZ,GG,ECNZ,kWh,I,F,06/03/1999,165780,167290,155360,112330,69030,69500,71980,79340,99030,103120,94280,95620,95780,86950,105300,161710,184420,180180,189190,192620,202770,214490,231680,221980,210940,208440,214280,213950,179630,163700,174810,182500,203980,252460,257550,227530,234160,234580,231260,229340,227190,230820,226490,223790,212580,213350,222490,187000,8512550
BEN0161,ECNZ,GG,ECNZ,kWh,I,F,07/03/1999,193590,156650,112620,97190,82690,61280,49780,47470,33890,22090,8820,22050,21360,22060,21330,22030,27940,88050,113870,117600,148790,157550,168500,191160,224710,219640,172990,173430,154920,138900,111980,125710,136570,217730,252320,255350,235430,236240,237490,237090,238960,236700,233590,235500,229120,199790,189830,134360,6816710
BEN0161,ECNZ,GG,ECNZ,kWh,I,F,08/03/1999,114150,80090,68640,51520,17890,25700,26600,27090,27330,34110,39290,71070,54870,139670,221220,237290,243770,206590,175430,169640,163770,159520,154150,207940,222550,234320,223920,218530,223270,238090,207580,200130,184230,206980,195410,195120,214400,221240,199950,255700,251910,238240,239090,239150,191060,183390,183280,185750,7870630
BEN0161,ECNZ,GG,ECNZ,kWh,I,F,09/03/1999,126070,75580,67320,74250,70890,68500,69590,73070,72080,70290,79540,84510,82230,97340,73170,145850,187390,195500,189100,161330,208790,170190,156370,150460,150230,157240,164400,170380,176650,175580,158590,186490,198000,199750,195980,155710,154400,106720,99040,110770,113470,178510,192300,180870,208360,223520,228860,219630,6854860
BEN0161,ECNZ,GG,ECNZ,kWh,I,F,10/03/1999,103370,63600,69120,72800,71390,67340,71890,67330,67130,69020,66980,65380,33180,76440,112410,155300,204440,255120,255040,249000,219030,201180,201750,229910,209430,206070,236030,235370,206070,205930,205110,198720,169370,209390,212230,171670,134070,122000,140550,205940,250960,255840,242040,242410,244130,236710,234360,235410,8057960
BEN0161,ECNZ,GG,ECNZ,kWh,I,F,11/03/1999,170350,122170,102830,128530,115810,108630,89420,34240,32110,34490,26160,39050,48240,135320,212010,222110,217070,226090,230580,226120,208920,220740,234400,240460,230390,227740,209260,206010,216790,219970,227190,226050,219820,222510,223880,225280,222190,216530,219180,233750,237770,228080,206920,153730,106480,72750,91710,103560,8173390
BEN0161,ECNZ,GG,ECNZ,kWh,I,F,12/03/1999,94760,78190,81770,87520,88510,89120,88580,88310,91000,91550,74670,77200,78020,88570,132980,175480,165820,151340,162260,172880,216140,202800,194790,195420,191840,179270,159550,162870,172490,177560,201230,203200,209240,222880,177420,168130,188110,205530,229670,226470,233150,231970,227830,242290,210880,182180,158460,143310,7673210
BEN0161,ECNZ,GG,ECNZ,kWh,I,F,13/03/1999,115020,88220,81420,58560,54550,52240,44510,38420,35600,35920,34230,32800,33070,36420,30110,25610,53860,146390,214270,224120,222220,225580,224610,225340,235630,228290,220100,214480,155280,119290,94950,82260,98900,110370,128450,163170,163010,160620,166380,210100,224370,215610,207340,210730,182780,116240,106270,97630,6245340
BEN0161,ECNZ,GG,ECNZ,kWh,I,F,14/03/1999,89700,34420,32160,46970,62450,83290,87520,79380,43020,33040,38200,41530,32040,32200,6510,2840,16420,38940,51270,96360,98440,82790,78750,83310,92830,92620,98290,98610,99100,115650,128010,128390,133480,131940,133620,139790,140310,143790,194910,220300,250460,253030,249680,248330,209380,190140,187460,175390,5147060
BEN0161,ECNZ,GG,ECNZ,kWh,I,F,15/03/1999,164970,154280,111780,98410,80320,78420,77730,77170,73730,69890,63030,109920,133680,218540,227510,227540,199590,207320,214280,216930,224360,216200,217440,230120,232040,220510,227230,213390,216710,214760,212550,224360,217820,210030,222320,243490,225090,157730,224980,243650,251670,252170,246960,241580,239040,212190,185100,165330,8993860
BEN0161,ECNZ,GG,ECNZ,kWh,I,F,16/03/1999,90320,33090,29120,25140,4200,3640,4070,3390,3140,3710,2750,3120,33220,152470,234360,234940,218060,196070,176320,175230,160790,163830,170470,193390,234200,231500,234310,242840,230030,208830,233600,220620,198270,211030,214460,211170,202430,207920,174640,181000,219460,230900,223830,192380,189250,155970,99470,79860,7142810
BEN0161,ECNZ,GG,ECNZ,kWh,I,F,17/03/1999,92360,95470,96280,76920,75330,77690,75330,73880,72620,71710,72310,72460,111730,216630,242740,234470,229600,230360,224960,228650,240740,250990,246890,245520,193710,191950,207570,205910,200500,201150,203520,204480,205350,169050,166000,189540,197000,221300,210540,223630,223360,217530,206320,180610,167890,150120,149860,108350,8250880
BEN0161,ECNZ,GG,ECNZ,kWh,I,F,18/03/1999,142900,113870,87650,73500,62800,49530,49970,47220,47530,46270,49530,61190,71330,133650,204000,229250,203440,200700,197010,180390,189920,213060,236740,240590,223940,229440,237040,230160,224800,241260,247020,248680,246340,236010,203720,158730,173840,222710,195120,241360,247020,250880,248060,246320,215620,178450,150970,96810,8326340
BEN0161,ECNZ,GG,ECNZ,kWh,I,F,19/03/1999,93990,58890,47410,23420,22110,22660,25990,41110,47960,46910,47600,52050,77340,91410,140100,189440,208760,196070,178450,171840,156550,154450,190390,219020,227470,231200,237060,229480,226440,220560,225580,226680,220220,213480,204750,166640,159850,152060,142860,148780,218020,190270,169430,164920,159280,145070,161380,178650,7124050
BEN0161,ECNZ,GG,ECNZ,kWh,I,F,20/03/1999,198100,189480,134980,79010,73630,73820,76580,78410,78310,77590,73190,74450,95480,137060,180810,204330,188360,200960,216890,218070,210190,218100,199550,175200,175150,175650,173160,173380,174560,182900,203840,241730,242840,242860,230950,237380,240320,240290,225970,219220,256370,251370,245520,251210,238990,208360,199360,207360,8691290
BEN0161,ECNZ,GG,ECNZ,kWh,I,F,21/03/1999,224770,203560,145670,118630,117900,115440,116040,103280,93720,91400,71680,67200,30370,31320,82390,101540,128370,178860,202260,194100,208120,206770,201920,199710,198840,196840,159370,128660,101710,97460,97310,98620,130700,140900,155360,177110,206380,228650,232890,225060,185470,157000,142840,129200,151050,134550,131660,129450,117590,116230,7205920
BEN0161,ECNZ,GG,ECNZ,kWh,I,F,22/03/1999,74370,42700,63110,50600,42760,48460,51990,58800,65990,66040,72110,85470,127270,211410,241630,221530,212120,226880,242750,236830,233700,221220,211800,207940,214290,219800,211700,222340,219260,213950,212250,222450,227770,229260,216410,222420,229370,237580,235960,226320,212330,247610,240790,236360,220630,199200,219030,168410,8622970
BEN0161,ECNZ,GG,ECNZ,kWh,I,F,23/03/1999,106140,76220,59560,48370,32490,18890,2050,2160,3240,1310,4260,33630,116860,227630,248280,246690,245980,244050,245640,236540,225220,221090,220390,192900,174240,228690,241350,247780,248140,249080,240070,240770,244890,246180,241680,227570,225660,244040,232240,218410,226750,224290,217080,158470,98740,75910,89830,73010,7974460
BEN0161,ECNZ,GG,ECNZ,kWh,I,F,24/03/1999,69650,29600,27200,3750,3190,3200,2940,2450,24760,34520,12980,23370,64760,194050,246420,251860,241000,225740,232990,235690,222480,210220,199030,167120,163700,156600,145870,179380,207340,203030,207150,213300,215950,214220,205080,223490,218670,225600,239610,225720,222950,224520,216050,162350,167390,132870,151000,105840,7356650
BEN0161,ECNZ,GG,ECNZ,kWh,I,F,25/03/1999,99210,91170,29010,25330,25510,25790,25710,24940,24150,23960,23930,6440,23080,52990,73960,107490,130240,110310,76850,66800,51970,52080,48910,48370,107370,93840,132550,185880,200040,193530,166850,156900,153390,156710,134990,60080,66640,122570,171420,172690,177880,175380,174300,177680,196140,200630,199570,199700,5044930
BEN0161,ECNZ,GG,ECNZ,kWh,I,F,26/03/1999,168420,125760,81100,76120,72940,81140,77370,75030,90910,89710,80960,69680,53570,156650,195610,250460,260860,240060,122950,94390,109510,116510,123210,132030,187220,253200,263090,260040,223130,195610,162660,155130,160140,142590,102400,93610,59600,69520,66230,51830,76160,155890,135440,111370,91240,76550,108930,110530,6257060
BEN0161,ECNZ,GG,ECNZ,kWh,I,F,27/03/1999,116360,117740,119610,108570,104160,94420,89230,72270,63950,67130,57950,49820,53200,49740,47920,60330,104360,138550,153300,158570,171880,176330,173580,146350,133190,136810,130370,125480,123150,125220,125330,125020,134990,126930,125840,129090,104460,119580,157820,88150,51780,57690,58000,56750,55100,55290,68260,55730,4965350
BEN0161,ECNZ,GG,ECNZ,kWh,I,F,28/03/1999,93720,114800,110370,112550,93490,84150,72250,62000,61540,61160,61050,84160,17670,29400,28320,29400,76890,87690,89810,88670,127780,100010,116390,114630,116250,117470,119520,121090,122610,125500,124140,127640,130830,131050,132330,131330,130450,157380,172430,140130,127010,102000,90170,81660,87050,106150,121140,97650,4830880
BEN0161,ECNZ,GG,ECNZ,kWh,I,F,29/03/1999,74330,52450,56660,47030,46590,48390,49180,49160,47140,47810,49060,46880,57420,144810,209520,191220,183990,189640,187020,163870,228760,240460,238740,235060,212280,198010,215580,220310,205230,153370,139050,93360,76820,76660,53220,46620,48330,74040,63950,48640,48740,47670,46910,50120,48980,46100,47990,57220,5204390
BEN0161,ECNZ,GG,ECNZ,kWh,I,F,30/03/1999,53800,47760,48420,47070,48890,48960,48930,46540,47460,48300,48110,48590,52630,112340,139700,187560,185070,159950,136540,139040,144090,124430,168370,192870,188230,158050,195570,225930,185210,178810,128820,101260,53090,52830,72970,76760,74860,96580,138150,128830,144440,157320,130590,132510,132830,136300,179360,183740,5578460
BEN0161,ECNZ,GG,ECNZ,kWh,I,F,31/03/1999,121070,82940,83370,86070,85990,77720,73700,73990,80040,81160,83200,93940,146510,198360,178420,202050,189820,163620,154320,151570,158480,148560,153000,155060,153820,151450,153340,152170,146200,136910,129230,139900,179360,186130,146800,159500,160130,177230,217540,202480,157370,152240,145230,132970,134650,110840,119570,115280,6683300
BEN0161,ECNZ,GG,ECNZ,kWh,I,F,01/04/1999,84680,60660,68840,70170,48160,47790,48950,54930,53300,52830,50620,52830,67350,74630,77150,93730,94370,124180,153000,114110,94410,109690,153390,192710,189500,170210,131600,115200,95840,92660,79770,79390,77860,80770,74430,72710,92620,201980,165870,102050,95330,109640,124960,104770,99440,97460,121970,126870,4745380
BEN0161,MERI,GG,MERI,kWh,I,F,02/04/1999,146410,135730,98300,77140,43640,29660,24530,25710,27320,26220,33090,55740,67520,80910,98440,122410,175850,219390,221590,221320,216790,217200,215370,207550,191920,186560,184510,183920,147950,126090,124010,115240,168910,190910,192180,184040,184140,195140,179660,178700,179000,188410,190170,175380,118320,86660,76620,80250,6616520
BEN0161,MERI,GG,MERI,kWh,I,F,03/04/1999,75380,46380,28030,30330,28380,36580,40120,39990,38410,38050,38930,38420,29940,44080,88630,138570,136350,141000,169600,171230,156140,149490,160860,161830,125620,128030,131170,142060,126040,114540,49870,48440,49130,57350,51050,67030,60240,70700,64680,66900,57370,48470,49300,54920,49480,53070,82210,77220,3851610
BEN0161,MERI,GG,MERI,kWh,I,F,04/04/1999,91740,110290,67260,63830,73610,74370,67550,67530,64320,60570,64870,57410,57030,57980,50430,55280,116720,159650,174300,174260,170350,161070,146900,137400,120470,110100,114740,44740,24150,14360,18440,26120,48870,76950,116170,154020,189810,207140,194480,194710,173650,123680,75550,73230,54430,47730,78810,83180,4690250
BEN0161,MERI,GG,MERI,kWh,I,F,05/04/1999,71840,45650,92980,76460,59650,49580,62380,59800,65780,66110,66640,72810,94950,61360,50430,50050,68760,83620,107710,117670,117530,100950,61500,46490,43750,31990,41450,45790,46050,47640,47140,67020,125810,145470,127430,123640,124080,120400,118080,106500,96610,97830,97760,58540,51670,49820,52390,17410,3634970
BEN0161,MERI,GG,MERI,kWh,I,F,06/04/1999,3540,2420,3700,2260,4230,2970,3600,2970,3540,2910,3360,3400,3270,1930,24560,100530,137160,137140,164910,183500,193900,187750,184220,174400,167670,151850,144130,147780,146840,146130,144910,184030,228830,237280,253760,270340,269560,269390,263960,266070,266750,267820,244300,200090,150440,124870,97910,74420,6251300
BEN0161,MERI,GG,MERI,kWh,I,F,07/04/1999,37530,18160,3880,940,1560,1350,1510,2480,730,520,1560,510,870,250,10340,76640,148210,167790,201780,189690,176630,167850,188730,191960,164780,154470,154560,150480,146020,144630,144840,190180,206100,201110,189510,181970,183660,200340,199170,194610,156530,157830,129260,119100,120880,53580,48000,47270,5230350
BEN0161,MERI,GG,MERI,kWh,I,F,08/04/1999,48540,47880,47850,46660,48860,48650,47250,48230,49250,46690,48900,47300,48700,64160,75980,99350,160910,191230,193130,194390,200350,214240,214830,211950,170820,151690,147610,133310,130690,125840,127100,171950,200760,203670,203350,208150,201760,203680,204980,202930,208300,206560,195680,198800,197590,140230,133080,107300,6621110
BEN0161,MERI,GG,MERI,kWh,I,F,09/04/1999,124760,114280,104270,110050,74350,50890,67080,57270,47140,45130,47830,48110,82340,97170,97580,98200,142850,153220,151800,143730,142660,142450,131100,136260,115880,105770,104330,98730,98930,99810,97340,101130,125080,142550,165340,191040,191420,189750,191660,225430,246390,235160,231660,228350,184010,92780,97210,101180,6071450
BEN0161,MERI,GG,MERI,kWh,I,F,10/04/1999,177440,169400,118280,86710,99480,72900,48330,29480,10180,8340,8420,20890,33100,64560,102810,165810,177810,204400,198070,212350,194050,200040,171040,174470,150880,157570,147970,141170,123800,129130,101420,99400,112970,124020,101770,133770,183340,248970,246370,186100,122080,97980,96480,102060,78820,73340,72920,72610,5853300
BEN0161,MERI,GG,MERI,kWh,I,F,11/04/1999,73170,75460,62340,43050,7240,4760,4600,6790,5670,4670,3960,4610,4650,6600,5500,32900,97270,166120,184760,226140,218780,213410,202360,231530,224790,209670,169510,140170,117090,107570,72280,54950,79250,106740,75930,109230,193420,236670,232260,179100,187410,172470,158990,138100,98690,101880,101500,81190,5235200
BEN0161,MERI,GG,MERI,kWh,I,F,12/04/1999,74860,76750,77260,53400,71280,61230,52730,48930,30350,59410,51700,56060,57370,48870,94040,126710,131040,137650,139650,138410,125800,121070,121430,119880,115330,125070,122020,119860,132690,143050,140070,139870,158730,159390,165540,164380,167210,166200,148890,141390,137330,149200,157130,158400,125120,128020,149610,115510,5505890
BEN0161,MERI,GG,MERI,kWh,I,F,13/04/1999,134470,144140,157130,159730,151350,145930,114730,98940,93550,88590,53140,52700,53900,71590,81930,98940,134740,143500,144880,140820,131640,140420,152230,154680,131030,132240,130170,127620,129910,129500,125370,117280,128680,139880,142930,170990,174460,176370,161520,171340,152650,109230,145890,159040,129980,80730,70280,44060,6024820
BEN0161,MERI,GG,MERI,kWh,I,F,14/04/1999,57300,58130,36460,32000,31720,25560,25610,24850,38180,46090,67700,29400,66160,75470,152070,208350,241970,231680,213460,193420,179690,183120,194590,185930,163000,127470,144450,127420,101760,100030,94120,127790,120870,156830,196590,205700,221460,221650,221920,226140,179460,130400,95240,66870,78910,45950,59880,29150,5841970
BEN0161,MERI,GG,MERI,kWh,I,F,15/04/1999,45100,22920,8180,7900,9050,7410,8110,7660,7780,8530,7450,7570,9110,36830,105000,172210,172260,169990,168630,167000,168250,168990,171150,167190,167710,170700,171120,168130,167520,170050,168330,169160,171680,168930,167850,170090,171930,167570,189500,196820,154860,109320,134280,130780,132360,158430,132820,57600,5591810
BEN0161,MERI,GG,MERI,kWh,I,F,16/04/1999,98400,47120,7480,5500,5700,5580,5710,5350,5450,5240,8370,5440,27720,33050,49830,100500,164080,147100,141640,136010,125280,144720,144520,142880,116050,130450,143340,135010,146760,132040,124780,144550,145790,190470,202940,205230,177270,172380,181640,185080,175970,155270,140130,135490,102640,77150,81190,48260,5012550
BEN0161,MERI,GG,MERI,kWh,I,F,17/04/1999,61290,47530,9970,5620,3720,3620,5220,2960,2600,1640,2090,1600,6360,1750,4440,53340,115580,130620,157010,161750,171670,175400,176960,176460,159820,154430,151340,100950,119400,126150,120100,119130,129360,140050,136120,124950,147040,149910,125300,130080,131710,129890,134310,133160,130450,136910,131880,102140,4643780
BEN0161,MERI,GG,MERI,kWh,I,F,18/04/1999,106610,67730,83360,87730,92310,92180,90480,60270,53240,53840,54110,51790,52570,52680,6740,30710,109370,126240,130390,131600,134000,130790,122080,54160,32900,28000,27180,13720,4440,630,23800,24810,47340,48400,90770,158790,171240,151790,153860,166710,145610,139710,139010,135660,97960,109320,98370,87360,4072360
BEN0161,MERI,GG,MERI,kWh,I,F,19/04/1999,31360,24030,24090,24810,24940,22260,23850,24780,25060,23460,24800,23490,24050,44810,93520,173900,229380,227700,224680,223060,218230,211120,221460,223170,194050,183010,193230,204060,190320,200150,199300,209920,191490,183530,192300,186570,177650,176350,179270,175210,156460,104320,105970,61280,52220,48720,47910,29920,6055220
BEN0161,MERI,GG,MERI,kWh,I,F,20/04/1999,51400,5730,2940,3330,3780,20210,25960,25650,26690,25520,31440,31500,86940,125780,119420,141440,195140,210730,215630,206700,187830,206440,217810,216290,171770,156850,153170,125740,123100,126580,124790,122380,123490,153960,157970,242120,249590,226200,213100,207510,127260,117790,54450,57730,62710,63500,100770,113810,5760640
BEN0161,MERI,GG,MERI,kWh,I,F,21/04/1999,169460,162060,140630,153100,137080,114910,102810,94240,84450,90670,94620,59960,74180,98370,100860,98240,143560,148850,155180,155390,154860,164310,162240,158810,149900,125590,128900,123780,114510,117630,106830,114130,120250,116170,154200,174500,176310,184540,168170,146870,115720,104680,105510,91390,72860,89840,92610,53670,5967400
BEN0161,MERI,GG,MERI,kWh,I,F,22/04/1999,66760,47200,48210,40310,30600,27480,8350,2950,3890,5690,6510,9410,135070,184680,181900,163400,193820,193320,184140,178600,155010,128090,115350,104880,73580,74620,74860,72250,75660,76390,77970,77970,84120,121440,136870,214340,250470,254150,253870,246230,238300,223450,204440,200690,176860,165040,164610,146590,5900390
BEN0161,MERI,GG,MERI,kWh,I,F,23/04/1999,100410,54570,9750,5160,5900,6600,6640,7420,9590,8340,8450,8640,7190,5950,91700,162170,233670,237710,225440,202900,168040,144500,134730,155880,141430,128570,147480,140580,137300,118890,76900,77110,73950,72880,77190,155310,186140,190510,163080,108400,99520,85000,49310,52160,44720,51040,65840,61860,4506520
BEN0161,MERI,GG,MERI,kWh,I,F,24/04/1999,56950,48090,54110,33940,33440,27580,26550,23240,31130,30440,33500,41890,47610,50270,46940,48430,50320,64790,67550,64420,74590,71490,61860,46190,120200,135820,128750,125200,116240,110100,110090,109920,117100,137500,188550,228640,220890,207890,198130,161700,128950,180800,171100,173290,155900,142300,180320,169040,4853740
BEN0161,MERI,GG,MERI,kWh,I,F,25/04/1999,168850,140520,132620,92620,53830,41760,29250,25320,42680,45460,45190,47250,47790,50340,68380,97000,107380,150030,156720,149650,154040,158370,148030,141930,116310,114860,100820,77140,53960,47330,47210,52430,49440,46630,74160,107450,100350,107460,118870,122370,90480,63050,50340,50460,45490,49720,76950,40180,4098470
BEN0161,MERI,GG,MERI,kWh,I,F,26/04/1999,52120,29040,9720,9140,18880,22210,22920,23960,30390,30860,34750,35110,54180,111320,146360,164340,188020,195840,196230,196880,195260,189540,190870,185950,163890,152570,151060,165570,159330,154920,169380,182140,184410,185730,198190,233410,213630,210130,207570,206660,186110,186590,187420,196540,146040,132020,156760,146920,6610880
BEN0161,MERI,GG,MERI,kWh,I,F,27/04/1999,141270,137100,114210,105570,81720,55380,7930,6550,8370,8570,7530,15060,82150,139150,182100,177870,199640,209470,200630,198940,187230,155790,149640,151130,148000,149200,139830,135050,121920,123700,124300,141930,184640,180520,187570,204910,185460,180180,193480,204870,210800,207630,204310,157820,132090,66030,87670,71210,6466120
BEN0161,MERI,GG,MERI,kWh,I,F,28/04/1999,69820,69160,70020,68430,43130,22180,5000,7900,7970,8100,10920,47870,101810,115750,153080,184760,230130,201990,223510,191640,204300,204560,203480,230220,182690,186850,189790,178740,172120,176850,163760,145200,157530,166550,142520,148660,144540,148660,145870,186530,134810,128560,129870,139790,143650,132190,123460,113770,6358690
BEN0161,MERI,GG,MERI,kWh,I,F,29/04/1999,118920,119080,76600,50920,40610,6790,7240,2980,1790,1690,630,480,360,52040,121750,186570,222050,202320,191810,165370,190450,201300,237210,244260,202970,179650,196600,212780,228100,228550,225920,232550,202460,192380,174450,228540,211580,179340,178070,177660,147500,111830,98660,126800,112870,101810,98580,44050,6536920
BEN0161,MERI,GG,MERI,kWh,I,F,30/04/1999,7450,540,1250,0,60,1220,1670,0,1380,1520,1950,17240,23350,22470,24690,10160,116080,106060,113070,113670,104010,113420,110230,111260,105300,110750,131000,144560,130470,115810,126100,138980,195350,206200,213470,213510,189230,196630,197810,194400,159200,148310,151590,146790,124160,128880,213690,116570,4801510
BEN0161,MERI,GG,MERI,kWh,I,F,01/05/1999,117660,78840,73330,30790,2260,3370,4150,4020,2630,4140,4450,1560,1730,3360,28540,93420,139380,171760,172240,177660,192160,186340,187170,176200,151480,144830,147530,145720,139710,58540,49120,48500,91250,54970,150190,219120,185540,186410,169760,167800,139030,197480,127960,94490,106170,138860,192710,210890,5175220
BEN0161,MERI,GG,MERI,kWh,I,F,02/05/1999,211100,163210,89950,39730,26020,26620,56550,57680,58290,59250,65310,40020,46540,32270,9990,24070,52120,97440,133450,164180,166480,162440,130900,127220,129220,105800,106310,107660,107990,106230,106880,106100,108900,122790,158750,196700,167290,174470,189720,233060,238050,241910,235840,250800,250990,218770,213240,170010,6088310
BEN0161,MERI,GG,MERI,kWh,I,F,03/05/1999,168850,148840,112640,56940,38550,29680,4410,3730,2830,4260,4020,2830,29680,47980,96620,127430,131510,233620,266400,248310,242210,241460,240300,238430,188910,182710,181900,176910,174370,139250,110910,142870,189340,206470,172240,257330,227800,225840,223430,174370,102210,73110,109750,106830,92430,17340,4170,1810,6203830